Location: Sar?kaya Deresi
(38.9933°N, 32.0318°E)
Time: 04:37:43
(UTC+00:00)

Daily predictions for brighter satellites

Satellite Brightness Start Highest point End
(mag) Time Altitude Azimuth Time Altitude Azimuth Time Altitude Azimuth
IDEFIX/ARIANE 42P 3.6 00:13:03 10° N 00:16:41 35° NW 00:16:41 35° NW
Envisat 3.2 00:16:10 10° NNE 00:21:12 63° ESE 00:21:15 63° ESE
ISS -1.0 00:23:17 17° ENE 00:23:17 17° ENE 00:24:16 10° ENE
Meteor 1-27 Rocket 4.4 00:21:06 42° SE 00:22:40 54° E 00:28:26 10° NNE
Iridium 4 Rocket 3.5 00:23:28 65° ENE 00:23:28 65° ENE 00:28:00 10° N
MOZ.5/SAFIR/RUBIN 5/SL-8 4.1 00:27:09 59° N 00:27:09 59° N 00:30:55 10° NNW
Cosmos 1461 4.5 00:29:32 26° E 00:29:32 26° E 00:31:58 10° NE
H-2A R/B 3.5 00:31:28 38° NE 00:31:28 38° NE 00:34:26 10° N
Cosmos 1763 Rocket 3.7 00:33:22 59° NW 00:33:22 59° NW 00:38:17 10° NNE
Cosmos 990 Rocket 4.2 00:28:47 10° NNW 00:33:53 65° ENE 00:36:05 34° SE
ADEOS II 2.8 00:29:02 10° NNE 00:34:05 47° E 00:35:40 36° SE
ADEOS Rocket 3.7 00:32:24 10° N 00:39:51 57° WNW 00:41:53 45° WSW
ALOS 2.2 00:36:46 10° NNE 00:41:19 75° ESE 00:41:29 73° SE
CZ-2D R/B 2.1 00:36:57 10° NNE 00:42:14 80° ESE 00:43:16 58° S
USA 281 3.8 00:51:27 37° W 00:51:27 37° W 00:56:39 10° NW
DELTA 2 R/B (1) 4.3 00:52:27 35° SSE 00:53:04 36° SSE 00:58:05 10° E
SL-19 R/B 4.4 00:49:03 10° NNE 00:54:48 81° ESE 00:57:22 37° S
Cosmos 1354 Rocket 3.8 00:50:49 10° NNW 00:56:05 78° WSW 00:58:08 38° S
Cosmos 2360 Rocket 2.0 00:51:23 10° NNW 00:57:04 78° WSW 01:01:44 15° SSE
Cosmos 1503 Rocket 4.3 00:52:23 10° NNW 00:56:51 47° W 00:56:51 47° W
Cosmos 2333 Rocket 2.7 00:52:37 10° NW 00:57:05 40° W 00:57:05 40° W
ATLAS 5 CENTAUR R/B 3.4 00:57:43 36° S 00:59:53 64° ESE 01:14:56 10° NE
Cosmos 540 Rocket 4.2 01:01:37 36° WNW 01:01:53 36° WNW 01:06:37 10° N
Cosmos 2221 4.5 01:07:40 15° NW 01:07:40 15° NW 01:09:05 10° NNW
Cosmos 468 Rocket 4.1 01:06:35 48° WSW 01:07:44 59° WNW 01:12:58 10° N
Resurs 1-4 Rocket 2.4 01:05:56 10° N 01:11:02 50° WNW 01:12:17 41° WSW
Cosmos 2278 4.3 01:06:29 10° NW 01:11:11 35° W 01:11:11 35° W
H-2A R/B 3.6 01:08:15 10° NE 01:11:48 30° E 01:15:01 11° SSE
Cosmos 2322 Rocket 2.3 01:06:49 10° NNW 01:12:16 52° WSW 01:15:03 28° S
CZ-2C R/B 4.5 01:16:29 10° NE 01:20:19 23° E 01:24:03 10° SSE
CRYOSAT 2 4.3 01:18:22 19° S 01:21:55 86° W 01:26:49 10° N
Cosmos 1766 Rocket 3.4 01:18:40 10° NNW 01:22:57 64° W 01:24:44 33° SSW
H-2A R/B 2.2 01:20:44 10° N 01:25:45 53° WNW 01:27:58 32° SW
Cosmos 2219 Rocket 2.1 01:20:44 10° NNW 01:26:22 73° WSW 01:31:58 10° SSE
Meteor 2-11 Rocket 4.4 01:20:40 10° N 01:26:52 89° WSW 01:32:59 10° S
SL-16 R/B 3.8 01:22:52 10° NW 01:24:53 17° WNW 01:24:53 17° WNW
Meteor 1-11 Rocket 4.4 01:22:16 10° NNW 01:27:32 36° W 01:29:12 30° SW
USA 267 4.2 01:23:47 10° NE 01:29:41 37° NNW 01:34:01 17° W
SL-14 R/B 3.7 01:28:27 16° S 01:31:21 60° E 01:35:11 10° NNE
SL-4 R/B 1.7 01:31:41 10° NW 01:35:33 88° SW 01:39:16 10° SE
ARGOS 3.2 01:30:28 10° NNE 01:35:52 83° ESE 01:40:54 12° SSW
METEOR-M 4.2 01:33:24 10° N 01:38:39 61° WNW 01:42:08 21° SSW
Gbstr 26 Del rocket 2.6 01:38:24 10° NW 01:42:08 84° NE 01:45:59 10° SE
Cosmos 2322 4.3 01:40:49 10° NNW 01:46:28 59° ENE 01:52:03 10° SE
SL-08 R/B 4.5 01:45:50 10° N 01:52:09 74° W 01:58:26 10° S
Cosmos 372 Rocket 4.0 01:47:35 10° NNW 01:52:36 54° WSW 01:57:32 10° S
Meteor 2-4 Rocket 4.4 01:52:16 21° WSW 01:54:55 31° WNW 01:59:40 10° NNW
ISS -2.3 01:56:14 18° WNW 01:58:02 29° NNW 02:01:02 10° NNE
NOSS 3-4 (A) 3.9 01:51:28 10° NW 01:58:31 67° WSW 02:06:44 10° SSE
NOSS 3-4 (C) 3.9 01:52:01 10° NW 01:59:05 68° WSW 02:07:18 10° SSE
Aureole 1 Rocket 4.1 01:59:44 10° NW 02:03:48 31° WSW 02:08:41 10° SSW
USA 234 3.2 01:57:25 10° SE 02:03:57 79° SW 02:10:32 10° NW
Cosmos 1461 4.2 02:03:16 16° W 02:05:01 21° NW 02:07:56 10° N
Meteor 1-28 Rocket 4.4 02:04:56 10° SE 02:07:59 39° ENE 02:11:03 10° N
Cosmos 2084 Rocket 4.3 02:04:26 10° WNW 02:08:02 27° WSW 02:11:37 10° S
AQUA 4.2 02:04:22 10° N 02:08:48 44° WNW 02:13:10 10° SW
Cosmos 1151 Rocket 2.9 02:05:12 10° SSW 02:09:23 69° W 02:13:36 10° N
PAYLOAD A 4.2 02:06:44 10° NNE 02:11:25 64° ESE 02:16:02 10° S
S3M 4.1 02:06:07 10° S 02:12:29 89° W 02:18:50 10° N
Cosmos 2297 Rocket 2.3 02:07:22 10° SSW 02:12:59 79° ESE 02:18:39 10° NNE
ADEOS II 3.5 02:09:25 10° NNW 02:13:14 21° WNW 02:16:28 12° WSW
Cosmos 1386 Rocket 4.5 02:07:15 10° NNW 02:13:19 68° W 02:19:30 10° S
Cosmos 1500 Rocket 3.5 02:12:09 10° N 02:16:34 85° W 02:20:59 10° S
SL-16 R/B 2.6 02:10:44 10° S 02:16:53 60° WSW 02:23:05 10° NNW
ALOS 4.3 02:16:26 10° NW 02:17:34 11° WNW 02:18:44 10° WNW
Cosmos 858 Rocket 4.4 02:15:29 10° NNW 02:20:41 85° WSW 02:25:50 10° SSE
CZ-2D R/B 4.0 02:19:06 10° NNW 02:21:31 13° WNW 02:23:55 10° W
TSX-5 4.4 02:18:33 10° NNW 02:21:32 45° ENE 02:24:35 10° SE
COSMOS 2428 2.7 02:19:42 10° NNW 02:25:25 75° WSW 02:31:04 10° SSE
EXPRESS MD2 3.9 02:23:45 10° SSW 02:26:07 35° SE 02:29:29 10° ENE
Sich 1 3.8 02:25:07 10° NNW 02:28:42 29° W 02:32:16 10° SSW
Cosmos 2263 Rocket 4.5 02:24:27 10° SSE 02:28:56 25° ESE 02:33:25 10° NE
Okean 3 Rocket 4.3 02:24:58 10° NNW 02:28:57 32° W 02:32:55 10° SSW
Cosmos 1758 3.6 02:29:04 10° NNW 02:32:26 37° W 02:35:46 10° SSW
Cosmos 1898 Rocket 4.2 02:29:02 10° NW 02:33:29 30° W 02:37:56 10° SSW
Cosmos 1743 Rocket 3.5 02:33:11 10° N 02:37:34 79° W 02:41:54 10° S
Cosmos 1805 Rocket 3.9 02:33:55 10° NNW 02:38:05 44° W 02:42:12 10° SSW
Cosmos 1937 Rocket 3.9 02:33:22 10° NW 02:38:08 38° WSW 02:42:50 10° SSW
Cosmos 1953 3.9 02:34:43 10° N 02:38:09 37° E 02:41:34 10° SSE
DELTA 2 R/B (1) 3.6 02:33:34 10° WSW 02:39:07 83° SSE 02:44:40 10° E
Cosmos 158 Rocket 4.0 02:34:05 10° SSW 02:39:18 79° WNW 02:44:40 10° NNE
